Ohio State University, OH

8:28 AM EDT on June 23, 2018 (GMT -0400)
Ohio State University

Weather History for KOSU - October, 2017

Change the Weather History Date:

Thursday, October 12, 2017

  Actual Average Record
Temperature  
Mean Temperature 60 °F -  
Max Temperature 64 °F 63 °F 81 °F (2008)
Min Temperature 57 °F 41 °F 32 °F (2006)
Degree Days  
Heating Degree Days 4    
Growing Degree Days 10 (Base 50)    
Moisture  
Dew Point 59 °F    
Average Humidity 96    
Maximum Humidity 100    
Minimum Humidity 81    
Precipitation  
Precipitation 0.04 in - - ()
Sea Level Pressure  
Sea Level Pressure 30.13 in    
Wind  
Wind Speed 6 mph (NW)    
Max Wind Speed 9 mph    
Max Gust Speed -    
Visibility 5 miles    
Events Fog , Rain    
Averages and records for this station are not official NWS values.
T = Trace of Precipitation, MM = Missing Value Source: NWS Daily Summary

Daily Weather History Graph

Daily Weather History Graph

Search for Another Location

Airport or City:

Astronomy

Oct. 12, 2017 Rise Set
Actual Time 7:39 AM EDT 6:56 PM EDT
Civil Twilight 7:12 AM EDT 7:23 PM EDT
Nautical Twilight 6:41 AM EDT 7:55 PM EDT
Astronomical Twilight 6:09 AM EDT 8:26 PM EDT
Moon 12:00 AM EDT (10/12) 2:49 PM EDT (10/12)
Length of Visible Light 12h 11m
Length of Day
11h 16m
Waning Gibbous, 49% of the Moon is Illuminated
Oct 12
Waning Gibbous
Oct 19
New
Oct 27
First Quarter
Nov 4
Full
Nov 10
Last Quarter

Hourly Weather History & Observations

Time (EDT) Temp. Dew Point Humidity Pressure Visibility Wind Dir Wind Speed Gust Speed Precip Events Conditions
12:53 AM 59.0 °F 59.0 °F 100% 30.08 in 5.0 mi NW 8.1 mph - 0.00 in   Overcast
1:53 AM 57.9 °F 57.9 °F 100% 30.08 in 5.0 mi NW 9.2 mph - N/A   Overcast
2:53 AM 57.9 °F 57.9 °F 100% 30.09 in 5.0 mi WNW 9.2 mph - N/A   Overcast
3:53 AM 57.0 °F 57.0 °F 100% 30.09 in 3.0 mi NW 8.1 mph - 0.00 in Rain Light Rain
4:16 AM 57.0 °F 57.0 °F 100% 30.10 in 2.5 mi NW 6.9 mph - 0.01 in Rain Light Rain
4:36 AM 57.0 °F 57.0 °F 100% 30.10 in 3.0 mi WNW 6.9 mph - 0.02 in Rain Light Rain
4:50 AM 57.2 °F 57.2 °F 100% 30.10 in 2.5 mi WNW 6.9 mph - 0.03 in Rain Light Rain
4:53 AM 57.9 °F 57.9 °F 100% 30.10 in 2.5 mi WNW 8.1 mph - 0.03 in Rain Light Rain
5:07 AM 57.9 °F 57.9 °F 100% 30.10 in 5.0 mi NW 5.8 mph - 0.01 in Rain Light Rain
5:53 AM 57.0 °F 57.0 °F 100% 30.11 in 4.0 mi NW 8.1 mph - 0.01 in   Overcast
6:53 AM 57.0 °F 57.0 °F 100% 30.12 in 4.0 mi NW 8.1 mph - N/A   Overcast
7:26 AM 57.0 °F 57.0 °F 100% 30.13 in 2.5 mi NW 5.8 mph - N/A   Overcast
7:44 AM 57.0 °F 57.0 °F 100% 30.14 in 1.8 mi NNW 5.8 mph - N/A   Overcast
7:45 AM 57.0 °F 57.0 °F 100% 30.14 in 2.0 mi NNW 5.8 mph - N/A   Overcast
7:53 AM 57.0 °F 57.0 °F 100% 30.14 in 2.0 mi NNW 5.8 mph - N/A   Overcast
7:57 AM 57.0 °F 57.0 °F 100% 30.14 in 0.8 mi NNW 5.8 mph - N/A   Overcast
8:53 AM 57.9 °F 57.9 °F 100% 30.15 in 1.0 mi NW 6.9 mph - N/A   Overcast
9:09 AM 57.9 °F 57.9 °F 100% 30.16 in 0.5 mi NNW 6.9 mph - N/A Fog Fog
9:53 AM 57.9 °F 57.9 °F 100% 30.17 in 1.0 mi NW 6.9 mph - N/A   Overcast
10:53 AM 59.0 °F 59.0 °F 100% 30.17 in 2.0 mi NNW 4.6 mph - N/A   Overcast
11:53 AM 60.1 °F 60.1 °F 100% 30.17 in 3.0 mi NW 4.6 mph - N/A   Overcast
12:53 PM 62.1 °F 60.1 °F 93% 30.17 in 5.0 mi Calm Calm - N/A   Overcast
1:53 PM 63.0 °F 60.1 °F 90% 30.15 in 5.0 mi Calm Calm - N/A   Overcast
2:00 PM 64.0 °F 60.1 °F 87% 30.16 in 10.0 mi Calm Calm - N/A   Overcast
2:53 PM 64.0 °F 59.0 °F 84% 30.14 in 10.0 mi Calm Calm - N/A   Overcast
3:53 PM 64.0 °F 60.1 °F 87% 30.14 in 10.0 mi WNW 3.5 mph - N/A   Overcast
3:55 PM 64.0 °F 59.0 °F 84% 30.14 in 10.0 mi Calm Calm - N/A   Overcast
4:53 PM 64.9 °F 59.0 °F 81% 30.13 in 10.0 mi Calm Calm - N/A   Overcast
5:53 PM 64.0 °F 60.1 °F 87% 30.14 in 10.0 mi Calm Calm - N/A   Overcast
6:53 PM 64.0 °F 60.1 °F 87% 30.14 in 10.0 mi Calm Calm - N/A   Overcast
7:53 PM 63.0 °F 60.1 °F 90% 30.15 in 10.0 mi Calm Calm - N/A   Overcast
8:53 PM 63.0 °F 60.1 °F 90% 30.16 in 10.0 mi Calm Calm - N/A   Overcast
9:53 PM 62.1 °F 60.1 °F 93% 30.16 in 10.0 mi ENE 3.5 mph - N/A   Overcast
10:53 PM 61.0 °F 61.0 °F 100% 30.16 in 10.0 mi ESE 3.5 mph - N/A   Overcast
11:53 PM 62.1 °F 61.0 °F 96% 30.16 in 10.0 mi SSW 3.5 mph - N/A   Overcast